Location: El Portezuelo
(28.4984°N, 16.3589°W)
Time: 19:36:19
(UTC+00:00)

Cosmos 1295 Rocket - Pass Details

Date: 20 January 2020
Orbit: 943 x 995 km, 82.9° (Epoch: 27 February)

Event Time Altitude Azimuth Distance (km) Brightness Sun altitude
Rises 06:43:38 0° 352° (N) 3,658 7.3 -16.4°
Reaches altitude 10° 06:46:09 10° 351° (N) 2,701 6.6 -15.8°
Maximum altitude 06:52:19 77° 267° (W) 980 4.4 -14.5°
Drops below altitude 10° 06:58:22 10° 182° (S) 2,658 7.0 -13.3°
Sets 07:00:50 0° 180° (S) 3,596 7.7 -12.7°
